| time (UTC) | temp F | wind direction | speed MPH | gust MPH | rain 1hr in | rain 24hr in | rain mn in | humidity % | barometer mb |
| 20260502233345 | 48 | 22 | 2.0 | 2.0 | 0.00 | 0.00 | 0.00 | 47 | 1017.5 |
| 20260502232843 | 47 | 308 | 0.0 | 0.0 | 0.00 | 0.00 | 0.00 | 47 | 1017.5 |
| 20260502232339 | 47 | 322 | 2.0 | 3.0 | 0.00 | 0.00 | 0.00 | 47 | 1017.6 |
| 20260502231835 | 47 | 327 | 3.0 | 4.0 | 0.00 | 0.00 | 0.00 | 46 | 1017.4 |
| 20260502231334 | 47 | 312 | 1.0 | 3.0 | 0.00 | 0.00 | 0.00 | 46 | 1017.6 |
| 20260502230831 | 47 | 341 | 1.0 | 2.0 | 0.00 | 0.00 | 0.00 | 43 | 1017.6 |
| 20260502230329 | 47 | 296 | 2.0 | 3.0 | 0.00 | 0.00 | 0.00 | 44 | 1017.6 |
| 20260502225826 | 47 | 298 | 3.0 | 3.0 | 0.00 | 0.00 | 0.00 | 45 | 1017.6 |
| 20260502225323 | 47 | 354 | 4.0 | 6.0 | 0.00 | 0.00 | 0.00 | 43 | 1017.6 |
| 20260502224820 | 47 | 295 | 4.0 | 6.0 | 0.00 | 0.00 | 0.00 | 44 | 1017.7 |
| 20260502224316 | 47 | 315 | 3.0 | 6.0 | 0.00 | 0.00 | 0.00 | 45 | 1017.7 |
| 20260502223814 | 47 | 330 | 4.0 | 6.0 | 0.00 | 0.00 | 0.00 | 44 | 1017.7 |
| 20260502223311 | 47 | 4 | 1.0 | 3.0 | 0.00 | 0.00 | 0.00 | 46 | 1017.8 |
| 20260502222809 | 47 | 318 | 3.0 | 4.0 | 0.00 | 0.00 | 0.00 | 46 | 1017.7 |
| 20260502222306 | 47 | 333 | 4.0 | 8.0 | 0.00 | 0.00 | 0.00 | 44 | 1017.8 |
| 20260502221801 | 47 | 319 | 2.0 | 6.0 | 0.00 | 0.00 | 0.00 | 44 | 1017.9 |
| 20260502221258 | 48 | 293 | 4.0 | 6.0 | 0.00 | 0.00 | 0.00 | 44 | 1017.7 |
| 20260502220755 | 48 | 294 | 6.0 | 9.0 | 0.00 | 0.00 | 0.00 | 43 | 1017.7 |
| 20260502220251 | 48 | 314 | 1.0 | 8.0 | 0.00 | 0.00 | 0.00 | 44 | 1017.7 |
| 20260502215747 | 48 | 291 | 5.0 | 8.0 | 0.00 | 0.00 | 0.00 | 44 | 1017.6 |
| 20260502215244 | 48 | 300 | 3.0 | 4.0 | 0.00 | 0.00 | 0.00 | 45 | 1017.6 |
| 20260502214742 | 47 | 274 | 2.0 | 8.0 | 0.00 | 0.00 | 0.00 | 44 | 1017.6 |
| 20260502214239 | 47 | 255 | 4.0 | 7.0 | 0.00 | 0.00 | 0.00 | 44 | 1017.5 |
| 20260502213736 | 47 | 298 | 2.0 | 3.0 | 0.00 | 0.00 | 0.00 | 45 | 1017.7 |
| 20260502213233 | 47 | 293 | 3.0 | 7.0 | 0.00 | 0.00 | 0.00 | 45 | 1017.6 |
| 20260502212732 | 48 | 300 | 4.0 | 6.0 | 0.00 | 0.00 | 0.00 | 44 | 1017.5 |
| 20260502212229 | 48 | 8 | 3.0 | 6.0 | 0.00 | 0.00 | 0.00 | 45 | 1017.6 |
| 20260502211725 | 48 | 354 | 4.0 | 7.0 | 0.00 | 0.00 | 0.00 | 44 | 1017.6 |
| 20260502211222 | 48 | 280 | 3.0 | 4.0 | 0.00 | 0.00 | 0.00 | 43 | 1017.5 |
| 20260502210719 | 48 | 308 | 3.0 | 8.0 | 0.00 | 0.00 | 0.00 | 44 | 1017.7 |
| 20260502210217 | 48 | 308 | 4.0 | 6.0 | 0.00 | 0.00 | 0.00 | 45 | 1017.6 |
| 20260502205714 | 47 | 313 | 4.0 | 7.0 | 0.00 | 0.00 | 0.00 | 45 | 1017.6 |
| 20260502205210 | 48 | 314 | 2.0 | 3.0 | 0.00 | 0.00 | 0.00 | 45 | 1017.6 |
| 20260502204707 | 47 | 319 | 2.0 | 4.0 | 0.00 | 0.00 | 0.00 | 45 | 1017.6 |
| 20260502204205 | 47 | 301 | 1.0 | 4.0 | 0.00 | 0.00 | 0.00 | 47 | 1017.5 |
| 20260502203702 | 47 | 291 | 2.0 | 8.0 | 0.00 | 0.00 | 0.00 | 46 | 1017.6 |
| 20260502203201 | 48 | 348 | 3.0 | 4.0 | 0.00 | 0.00 | 0.00 | 47 | 1017.9 |
| 20260502202654 | 48 | 270 | 4.0 | 10.0 | 0.00 | 0.00 | 0.00 | 48 | 1017.8 |
| 20260502202152 | 47 | 345 | 1.0 | 2.0 | 0.00 | 0.00 | 0.00 | 50 | 1017.7 |
| 20260502201649 | 47 | 296 | 7.0 | 9.0 | 0.00 | 0.00 | 0.00 | 47 | 1017.9 |
| 20260502201146 | 47 | 300 | 5.0 | 7.0 | 0.00 | 0.00 | 0.00 | 47 | 1017.7 |
| 20260502200641 | 48 | 316 | 2.0 | 4.0 | 0.00 | 0.00 | 0.00 | 47 | 1017.8 |
| 20260502200138 | 48 | 323 | 4.0 | 4.0 | 0.00 | 0.00 | 0.00 | 46 | 1017.9 |
| 20260502195637 | 48 | 317 | 4.0 | 8.0 | 0.00 | 0.00 | 0.00 | 45 | 1017.8 |
| 20260502195133 | 48 | 224 | 2.0 | 4.0 | 0.00 | 0.00 | 0.00 | 47 | 1017.9 |
| 20260502194630 | 47 | 302 | 2.0 | 4.0 | 0.00 | 0.00 | 0.00 | 48 | 1018.2 |
| 20260502194126 | 47 | 332 | 3.0 | 3.0 | 0.00 | 0.00 | 0.00 | 48 | 1018.1 |
| 20260502193623 | 47 | 31 | 4.0 | 6.0 | 0.00 | 0.00 | 0.00 | 48 | 1018.2 |
| 20260502193120 | 47 | 335 | 3.0 | 7.0 | 0.00 | 0.00 | 0.00 | 48 | 1018.2 |
| 20260502192615 | 47 | 352 | 2.0 | 3.0 | 0.00 | 0.00 | 0.00 | 48 | 1018.2 |
| 20260502192113 | 47 | 289 | 5.0 | 7.0 | 0.00 | 0.00 | 0.00 | 47 | 1018.3 |
| 20260502191609 | 47 | 220 | 5.0 | 6.0 | 0.00 | 0.00 | 0.00 | 47 | 1018.2 |
| 20260502191107 | 47 | 288 | 4.0 | 8.0 | 0.00 | 0.00 | 0.00 | 46 | 1018.2 |
| 20260502190605 | 48 | 280 | 6.0 | 10.0 | 0.00 | 0.00 | 0.00 | 45 | 1018.4 |
| 20260502185556 | 48 | 323 | 4.0 | 7.0 | 0.00 | 0.00 | 0.00 | 46 | 1018.3 |
| 20260502185054 | 47 | 261 | 4.0 | 10.0 | 0.00 | 0.00 | 0.00 | 47 | 1018.5 |
| 20260502184549 | 47 | 317 | 2.0 | 4.0 | 0.00 | 0.00 | 0.00 | 47 | 1018.4 |
| 20260502184045 | 47 | 316 | 3.0 | 3.0 | 0.00 | 0.00 | 0.00 | 48 | 1018.2 |
| 20260502183542 | 47 | 313 | 4.0 | 7.0 | 0.00 | 0.00 | 0.00 | 44 | 1018.3 |
| 20260502183038 | 48 | 30 | 4.0 | 6.0 | 0.00 | 0.00 | 0.00 | 44 | 1018.4 |
| 20260502182533 | 49 | 310 | 1.0 | 4.0 | 0.00 | 0.00 | 0.00 | 45 | 1018.3 |
| 20260502182029 | 47 | 270 | 3.0 | 6.0 | 0.00 | 0.00 | 0.00 | 46 | 1018.4 |
| 20260502181527 | 47 | 30 | 3.0 | 4.0 | 0.00 | 0.00 | 0.00 | 46 | 1018.4 |
| 20260502181026 | 47 | 339 | 9.0 | 10.0 | 0.00 | 0.00 | 0.00 | 44 | 1018.6 |
| 20260502180523 | 47 | 38 | 6.0 | 8.0 | 0.00 | 0.00 | 0.00 | 47 | 1018.5 |
| 20260502170442 | 46 | 289 | 3.0 | 6.0 | 0.00 | 0.00 | 0.00 | 51 | 1018.9 |
| 20260502163925 | 45 | 296 | 4.0 | 6.0 | 0.00 | 0.00 | 0.00 | 51 | 1019.2 |
| 20260502163421 | 45 | 323 | 5.0 | 7.0 | 0.00 | 0.00 | 0.00 | 51 | 1019.1 |
| 20260502162919 | 45 | 301 | 2.0 | 6.0 | 0.00 | 0.00 | 0.00 | 54 | 1019.0 |
| 20260502162416 | 46 | 282 | 5.0 | 7.0 | 0.00 | 0.00 | 0.00 | 53 | 1019.1 |
| 20260502161913 | 45 | 287 | 2.0 | 3.0 | 0.00 | 0.00 | 0.00 | 52 | 1019.2 |
| 20260502161409 | 45 | 352 | 6.0 | 10.0 | 0.00 | 0.00 | 0.00 | 51 | 1019.2 |
| 20260502160907 | 45 | 300 | 2.0 | 4.0 | 0.00 | 0.00 | 0.00 | 54 | 1019.3 |
| 20260502160405 | 45 | 357 | 3.0 | 6.0 | 0.00 | 0.00 | 0.00 | 55 | 1019.0 |
| 20260502151843 | 46 | 223 | 1.0 | 3.0 | 0.00 | 0.00 | 0.00 | 55 | 1018.9 |
| 20260502151339 | 45 | 45 | 4.0 | 4.0 | 0.00 | 0.00 | 0.00 | 57 | 1019.0 |
| 20260502150837 | 44 | 327 | 4.0 | 4.0 | 0.00 | 0.00 | 0.00 | 57 | 1019.1 |
| 20260502150333 | 45 | 312 | 3.0 | 6.0 | 0.00 | 0.00 | 0.00 | 56 | 1019.0 |
| 20260502130722 | 41 | 302 | 2.0 | 3.0 | 0.00 | 0.00 | 0.00 | 74 | 1018.5 |
| 20260502130219 | 41 | 356 | 1.0 | 3.0 | 0.00 | 0.00 | 0.00 | 74 | 1018.4 |
| 20260502123706 | 40 | 299 | 2.0 | 2.0 | 0.00 | 0.00 | 0.00 | 75 | 1018.1 |
| 20260502123202 | 39 | 12 | 1.0 | 2.0 | 0.00 | 0.00 | 0.00 | 76 | 1018.3 |
| 20260502122658 | 39 | 324 | 2.0 | 3.0 | 0.00 | 0.00 | 0.00 | 75 | 1018.3 |
| 20260502122155 | 38 | 349 | 2.0 | 4.0 | 0.00 | 0.00 | 0.00 | 76 | 1018.3 |
| 20260502121653 | 39 | 334 | 2.0 | 3.0 | 0.00 | 0.00 | 0.00 | 76 | 1018.4 |
| 20260502121151 | 38 | 318 | 3.0 | 3.0 | 0.00 | 0.00 | 0.00 | 76 | 1018.3 |
| 20260502120647 | 38 | 335 | 1.0 | 2.0 | 0.00 | 0.00 | 0.00 | 77 | 1018.5 |
| 20260502120144 | 37 | 327 | 1.0 | 3.0 | 0.00 | 0.00 | 0.00 | 77 | 1018.3 |
| 20260502115642 | 37 | 270 | 2.0 | 3.0 | 0.00 | 0.00 | 0.00 | 77 | 1018.6 |
| 20260502115138 | 37 | 292 | 1.0 | 2.0 | 0.00 | 0.00 | 0.00 | 78 | 1018.4 |
| 20260502114633 | 37 | 264 | 2.0 | 3.0 | 0.00 | 0.00 | 0.00 | 78 | 1018.4 |
| 20260502110533 | 34 | 327 | 1.0 | 1.0 | 0.00 | 0.00 | 0.00 | 84 | 1017.8 |
| 20260502110031 | 34 | 327 | 1.0 | 1.0 | 0.00 | 0.00 | 0.00 | 84 | 1017.8 |
| 20260502105527 | 34 | 333 | 0.0 | 2.0 | 0.00 | 0.00 | 0.00 | 84 | 1017.9 |
| 20260502105025 | 34 | 311 | 1.0 | 1.0 | 0.00 | 0.00 | 0.00 | 84 | 1018.0 |
| 20260502104522 | 34 | 315 | 1.0 | 2.0 | 0.00 | 0.00 | 0.00 | 83 | 1017.8 |
| 20260502104020 | 34 | 306 | 1.0 | 2.0 | 0.00 | 0.00 | 0.00 | 83 | 1017.7 |
| 20260502103517 | 34 | 287 | 2.0 | 2.0 | 0.00 | 0.00 | 0.00 | 83 | 1017.8 |
| 20260502103015 | 34 | 300 | 1.0 | 2.0 | 0.00 | 0.00 | 0.00 | 82 | 1017.8 |
| 20260502102511 | 34 | 322 | 2.0 | 3.0 | 0.00 | 0.00 | 0.00 | 82 | 1017.7 |
| 20260502102008 | 34 | 323 | 1.0 | 4.0 | 0.00 | 0.00 | 0.00 | 81 | 1017.9 |
| 20260502101506 | 34 | 307 | 1.0 | 3.0 | 0.00 | 0.00 | 0.00 | 81 | 1017.8 |
| 20260502101004 | 34 | 297 | 1.0 | 2.0 | 0.00 | 0.00 | 0.00 | 81 | 1017.7 |
| 20260502100503 | 34 | 312 | 2.0 | 4.0 | 0.00 | 0.00 | 0.00 | 81 | 1017.7 |
| 20260502091437 | 35 | 296 | 1.0 | 2.0 | 0.00 | 0.00 | 0.00 | 79 | 1017.4 |
| 20260502090934 | 35 | 316 | 1.0 | 2.0 | 0.00 | 0.00 | 0.00 | 78 | 1017.4 |
| 20260502090431 | 35 | 295 | 1.0 | 2.0 | 0.00 | 0.00 | 0.00 | 78 | 1017.4 |
| 20260502071320 | 37 | 301 | 2.0 | 2.0 | 0.00 | 0.00 | 0.00 | 76 | 1017.2 |
| 20260502070819 | 37 | 278 | 3.0 | 4.0 | 0.00 | 0.00 | 0.00 | 76 | 1017.3 |
| 20260502070316 | 37 | 285 | 1.0 | 6.0 | 0.00 | 0.00 | 0.00 | 75 | 1017.4 |
| 20260502065815 | 37 | 282 | 2.0 | 2.0 | 0.00 | 0.00 | 0.00 | 75 | 1017.3 |
| 20260502065313 | 37 | 300 | 1.0 | 1.0 | 0.00 | 0.00 | 0.00 | 75 | 1017.3 |
| 20260502064810 | 37 | 297 | 1.0 | 2.0 | 0.00 | 0.00 | 0.00 | 74 | 1017.5 |
| 20260502064308 | 38 | 299 | 3.0 | 3.0 | 0.00 | 0.00 | 0.00 | 74 | 1017.5 |
| 20260502063805 | 38 | 283 | 2.0 | 2.0 | 0.00 | 0.00 | 0.00 | 73 | 1017.6 |
| 20260502063303 | 38 | 304 | 1.0 | 3.0 | 0.00 | 0.00 | 0.00 | 73 | 1017.3 |
| 20260502062800 | 38 | 312 | 1.0 | 2.0 | 0.00 | 0.00 | 0.00 | 73 | 1017.4 |
| 20260502062257 | 38 | 312 | 1.0 | 1.0 | 0.00 | 0.00 | 0.00 | 72 | 1017.4 |
| 20260502061756 | 38 | 311 | 1.0 | 6.0 | 0.00 | 0.00 | 0.00 | 72 | 1017.4 |
| 20260502061254 | 38 | 323 | 3.0 | 6.0 | 0.00 | 0.00 | 0.00 | 71 | 1017.6 |
| 20260502060754 | 39 | 284 | 1.0 | 3.0 | 0.00 | 0.00 | 0.00 | 71 | 1017.4 |
| 20260502060249 | 39 | 320 | 1.0 | 2.0 | 0.00 | 0.00 | 0.00 | 71 | 1017.4 |
| 20260502055748 | 39 | 303 | 2.0 | 3.0 | 0.00 | 0.00 | 0.00 | 70 | 1017.6 |
| 20260502055245 | 39 | 333 | 4.0 | 7.0 | 0.00 | 0.00 | 0.00 | 70 | 1017.4 |
| 20260502054744 | 39 | 277 | 3.0 | 3.0 | 0.00 | 0.00 | 0.00 | 70 | 1017.4 |
| 20260502054241 | 39 | 314 | 1.0 | 4.0 | 0.00 | 0.00 | 0.00 | 69 | 1017.6 |
| 20260502053739 | 39 | 291 | 2.0 | 4.0 | 0.00 | 0.00 | 0.00 | 69 | 1017.6 |
| 20260502053236 | 40 | 303 | 2.0 | 3.0 | 0.00 | 0.00 | 0.00 | 69 | 1017.4 |
| 20260502052734 | 40 | 261 | 3.0 | 4.0 | 0.00 | 0.00 | 0.00 | 68 | 1017.6 |
| 20260502052231 | 40 | 282 | 1.0 | 4.0 | 0.00 | 0.00 | 0.00 | 67 | 1017.5 |
| 20260502051729 | 40 | 299 | 1.0 | 2.0 | 0.00 | 0.00 | 0.00 | 67 | 1017.3 |
| 20260502051227 | 40 | 302 | 2.0 | 4.0 | 0.00 | 0.00 | 0.00 | 67 | 1017.4 |
| 20260502050723 | 40 | 308 | 2.0 | 4.0 | 0.00 | 0.00 | 0.00 | 68 | 1017.5 |
| 20260502050220 | 40 | 304 | 2.0 | 7.0 | 0.00 | 0.00 | 0.00 | 67 | 1017.4 |
| 20260502045717 | 40 | 226 | 3.0 | 4.0 | 0.00 | 0.00 | 0.00 | 68 | 1017.3 |
| 20260502045214 | 40 | 286 | 4.0 | 7.0 | 0.00 | 0.00 | 0.00 | 68 | 1017.5 |
| 20260502044710 | 40 | 311 | 1.0 | 3.0 | 0.00 | 0.00 | 0.00 | 68 | 1017.4 |
| 20260502044207 | 40 | 299 | 2.0 | 7.0 | 0.00 | 0.00 | 0.00 | 68 | 1017.7 |
| 20260502043704 | 40 | 306 | 1.0 | 2.0 | 0.00 | 0.00 | 0.00 | 70 | 1017.8 |
| 20260502043202 | 41 | 274 | 3.0 | 4.0 | 0.00 | 0.00 | 0.00 | 69 | 1017.8 |
| 20260502042701 | 41 | 289 | 2.0 | 4.0 | 0.00 | 0.00 | 0.00 | 70 | 1017.6 |
| 20260502042159 | 41 | 348 | 1.0 | 2.0 | 0.00 | 0.00 | 0.00 | 72 | 1017.9 |
| 20260502041656 | 41 | 292 | 2.0 | 2.0 | 0.00 | 0.00 | 0.00 | 74 | 1017.9 |
| 20260502041153 | 41 | 256 | 2.0 | 2.0 | 0.00 | 0.00 | 0.00 | 76 | 1017.8 |
| 20260502040650 | 41 | 311 | 0.0 | 1.0 | 0.00 | 0.00 | 0.00 | 75 | 1017.7 |
| 20260502040147 | 41 | 298 | 1.0 | 2.0 | 0.00 | 0.00 | 0.00 | 77 | 1017.7 |
| 20260502035643 | 41 | 291 | 2.0 | 3.0 | 0.00 | 0.31 | 0.31 | 80 | 1017.7 |
| 20260502035140 | 40 | 262 | 0.0 | 0.0 | 0.00 | 0.31 | 0.31 | 86 | 1017.6 |
| 20260502034638 | 40 | 286 | 0.0 | 0.0 | 0.00 | 0.31 | 0.31 | 86 | 1017.7 |
| 20260502034136 | 40 | 324 | 0.0 | 0.0 | 0.00 | 0.31 | 0.31 | 86 | 1017.5 |
| 20260502033633 | 41 | 324 | 0.0 | 0.0 | 0.00 | 0.31 | 0.31 | 86 | 1017.3 |
| 20260502033131 | 41 | 280 | 0.0 | 0.0 | 0.00 | 0.31 | 0.31 | 85 | 1017.6 |
| 20260502032627 | 41 | 260 | 0.0 | 0.0 | 0.00 | 0.31 | 0.31 | 85 | 1017.6 |
| 20260502032123 | 41 | 284 | 0.0 | 0.0 | 0.00 | 0.31 | 0.31 | 84 | 1017.5 |
| 20260502031622 | 42 | 295 | 0.0 | 2.0 | 0.00 | 0.31 | 0.31 | 84 | 1017.5 |
| 20260502031119 | 42 | 274 | 0.0 | 0.0 | 0.00 | 0.31 | 0.31 | 84 | 1017.4 |
| 20260502030618 | 42 | 274 | 0.0 | 1.0 | 0.00 | 0.31 | 0.31 | 84 | 1017.4 |
| 20260502030116 | 42 | 283 | 0.0 | 1.0 | 0.00 | 0.31 | 0.31 | 84 | 1017.4 |
| 20260502025612 | 42 | 283 | 0.0 | 0.0 | 0.00 | 0.31 | 0.31 | 84 | 1017.2 |
| 20260502025110 | 42 | 338 | 0.0 | 0.0 | 0.00 | 0.31 | 0.31 | 86 | 1017.5 |
| 20260502024608 | 42 | 338 | 0.0 | 0.0 | 0.00 | 0.31 | 0.31 | 87 | 1017.3 |
| 20260502024106 | 41 | 338 | 0.0 | 0.0 | 0.00 | 0.31 | 0.31 | 88 | 1017.4 |
| 20260502023604 | 41 | 341 | 0.0 | 0.0 | 0.00 | 0.31 | 0.31 | 89 | 1017.4 |
| 20260502023100 | 41 | 341 | 0.0 | 0.0 | 0.00 | 0.31 | 0.31 | 89 | 1017.2 |
| 20260502022557 | 40 | 341 | 0.0 | 0.0 | 0.00 | 0.31 | 0.31 | 89 | 1017.1 |
| 20260502022055 | 40 | 341 | 0.0 | 0.0 | 0.00 | 0.31 | 0.31 | 89 | 1017.2 |
| 20260502021552 | 40 | 341 | 0.0 | 0.0 | 0.00 | 0.31 | 0.31 | 88 | 1016.9 |
| 20260502021048 | 40 | 341 | 0.0 | 0.0 | 0.00 | 0.31 | 0.31 | 88 | 1017.0 |
| 20260502020547 | 40 | 341 | 0.0 | 0.0 | 0.00 | 0.31 | 0.31 | 87 | 1016.9 |
| 20260502020043 | 40 | 341 | 0.0 | 0.0 | 0.00 | 0.31 | 0.31 | 86 | 1016.8 |
| 20260502015541 | 40 | 341 | 0.0 | 0.0 | 0.00 | 0.31 | 0.31 | 85 | 1016.6 |
| 20260502015037 | 41 | 341 | 0.0 | 0.0 | 0.00 | 0.31 | 0.31 | 84 | 1016.8 |
| 20260502014534 | 41 | 341 | 0.0 | 0.0 | 0.00 | 0.31 | 0.31 | 83 | 1016.9 |
| 20260502014031 | 41 | 341 | 0.0 | 0.0 | 0.00 | 0.31 | 0.31 | 82 | 1016.7 |
| 20260502013526 | 42 | 341 | 0.0 | 0.0 | 0.00 | 0.31 | 0.31 | 81 | 1016.5 |
| 20260502013023 | 42 | 341 | 0.0 | 0.0 | 0.00 | 0.31 | 0.31 | 81 | 1016.5 |
| 20260502012520 | 42 | 341 | 0.0 | 0.0 | 0.00 | 0.31 | 0.31 | 80 | 1016.2 |
| 20260502012018 | 43 | 341 | 0.0 | 0.0 | 0.00 | 0.31 | 0.31 | 78 | 1016.3 |
| 20260502011514 | 43 | 1 | 0.0 | 0.0 | 0.00 | 0.31 | 0.31 | 78 | 1016.3 |
| 20260502011011 | 43 | 12 | 1.0 | 2.0 | 0.00 | 0.31 | 0.31 | 77 | 1016.3 |
| 20260502010509 | 43 | 323 | 0.0 | 3.0 | 0.00 | 0.31 | 0.31 | 78 | 1016.1 |
| 20260502010004 | 43 | 2 | 2.0 | 3.0 | 0.00 | 0.31 | 0.31 | 77 | 1016.2 |
| 20260502005503 | 44 | 331 | 2.0 | 4.0 | 0.00 | 0.31 | 0.31 | 77 | 1016.1 |
| 20260502005000 | 44 | 337 | 5.0 | 11.0 | 0.00 | 0.31 | 0.31 | 76 | 1016.2 |
| 20260502004455 | 45 | 337 | 8.0 | 10.0 | 0.00 | 0.31 | 0.31 | 75 | 1016.2 |
| 20260502003952 | 46 | 305 | 4.0 | 9.0 | 0.00 | 0.31 | 0.31 | 74 | 1016.4 |
| 20260502003450 | 46 | 322 | 4.0 | 9.0 | 0.00 | 0.31 | 0.31 | 73 | 1016.3 |
| 20260502002946 | 46 | 298 | 6.0 | 8.0 | 0.00 | 0.31 | 0.31 | 71 | 1016.2 |
| 20260502002443 | 46 | 307 | 4.0 | 8.0 | 0.00 | 0.31 | 0.31 | 69 | 1016.0 |
| 20260502001941 | 46 | 289 | 4.0 | 7.0 | 0.00 | 0.31 | 0.31 | 68 | 1016.0 |
| 20260502001438 | 46 | 273 | 3.0 | 4.0 | 0.00 | 0.31 | 0.31 | 68 | 1016.0 |
| 20260502000936 | 46 | 277 | 2.0 | 2.0 | 0.00 | 0.31 | 0.31 | 68 | 1015.9 |
| 20260502000434 | 46 | 298 | 0.0 | 3.0 | 0.00 | 0.31 | 0.31 | 67 | 1015.8 |
| 20260501235930 | 46 | 304 | 2.0 | 4.0 | 0.00 | 0.31 | 0.31 | 67 | 1015.8 |
| 20260501235426 | 47 | 298 | 3.0 | 3.0 | 0.00 | 0.31 | 0.31 | 67 | 1015.7 |
| 20260501234921 | 47 | 300 | 0.0 | 3.0 | 0.00 | 0.31 | 0.31 | 66 | 1015.6 |
| 20260501234418 | 46 | 272 | 2.0 | 2.0 | 0.00 | 0.31 | 0.31 | 67 | 1015.6 |
| 20260501233917 | 47 | 247 | 1.0 | 2.0 | 0.00 | 0.31 | 0.31 | 67 | 1015.5 |